Location: Trondheim
(63.4170°N, 10.4170°E)
Time: 07:32:45
(UTC+02:00)

Iridium 82 - Visible Passes

Search period start: 22 August 2017 00:00
Search period end: 01 September 2017 00:00
Orbit: 471 x 728 km, 86.4° (Epoch: 21 August)

Date Brightness Start Highest point End Pass type
(mag) Time Alt. Az. Time Alt. Az. Time Alt. Az.
22 Aug 6.5 01:53:59 12° SE 01:57:28 30° E 02:01:08 10° NNE visible
22 Aug 5.2 03:30:45 15° SSW 03:34:21 58° WNW 03:38:27 10° N visible
23 Aug 6.0 02:05:30 15° SSE 02:08:42 39° E 02:12:32 10° NNE visible
23 Aug 5.6 03:42:16 15° SW 03:45:43 44° WNW 03:49:41 10° N visible
24 Aug 7.5 00:42:04 10° E 00:43:41 12° ENE 00:45:17 10° NE visible
24 Aug 5.6 02:17:01 19° SSE 02:19:56 50° E 02:23:53 10° NNE visible
24 Aug 5.9 03:53:47 13° SW 03:57:08 34° WNW 04:00:52 10° N visible
25 Aug 7.3 00:52:19 10° ESE 00:54:46 15° ENE 00:57:09 10° NE visible
25 Aug 5.1 02:28:30 22° S 02:31:12 67° E 02:35:12 10° N visible
25 Aug 6.3 04:05:16 12° WSW 04:08:34 26° WNW 04:12:00 10° N visible
26 Aug 7.0 01:03:13 11° ESE 01:05:53 19° ENE 01:08:45 10° NNE visible
26 Aug 4.9 02:40:00 24° S 02:42:29 88° E 02:46:29 10° N visible
26 Aug 6.6 04:16:48 10° WSW 04:20:01 21° WNW 04:23:05 10° NNW visible
27 Aug 6.6 01:14:41 15° ESE 01:17:02 24° E 01:20:15 10° NNE visible
27 Aug 4.9 02:51:27 25° SSW 02:53:48 70° W 02:57:44 10° N visible
27 Aug 6.9 04:28:51 10° W 04:31:30 16° WNW 04:34:05 10° NNW visible
28 Aug 6.2 01:26:08 20° SE 01:28:12 30° E 01:31:40 10° NNE visible
28 Aug 5.2 03:02:54 24° SW 03:05:08 52° WNW 03:08:57 10° N visible
28 Aug 7.1 04:41:08 10° W 04:43:02 13° NW 04:44:53 10° NNW visible
29 Aug 5.7 01:37:35 25° SE 01:39:24 40° E 01:43:02 10° NNE visible
29 Aug 5.6 03:14:21 22° SW 03:16:29 39° WNW 03:20:08 10° N visible
29 Aug 7.3 04:54:26 10° NW 04:54:35 10° NW 04:54:44 10° NW visible
30 Aug 7.3 00:12:55 10° E 00:14:19 12° ENE 00:15:42 10° NE visible
30 Aug 5.3 01:49:00 31° SSE 01:50:36 53° E 01:54:22 10° NNE visible
30 Aug 6.0 03:25:46 19° WSW 03:27:52 29° WNW 03:31:17 10° N visible
31 Aug 7.1 00:23:40 12° E 00:25:23 15° ENE 00:27:36 10° NE visible
31 Aug 4.8 02:00:25 38° SSE 02:01:51 72° E 02:05:39 10° N visible
31 Aug 6.4 03:37:11 16° WSW 03:39:16 23° WNW 03:42:21 10° NNW visible
